• In Deutschland
  • Länderverzeichnis
  • Für 7 Tage
  • Wassertemperatur
  • Satellitenkarten
  • Wetterkarte
  • Widgets
  • user-avatar
    Anmelden

    Stündliche Wetter Sapiranga

    Heute, 23 November, Donnerstag

    Zeit Temperatur Niederschläge Wind Luftdruck Luftfeuchtigkeit
    00:00 +14°C° 0 mm 1 m/S 757 mmHg 82%
    01:00 +13°C° 0 mm 1 m/S 757 mmHg 83%
    02:00 +13°C° 0 mm 1 m/S 756 mmHg 85%
    03:00 +13°C° 0 mm 1 m/S 756 mmHg 85%
    04:00 +13°C° 0 mm 1 m/S 756 mmHg 84%
    05:00 +13°C° 0 mm 1 m/S 756 mmHg 82%
    06:00 +13°C° 0 mm 1 m/S 756 mmHg 81%
    07:00 +18°C° 0 mm 1 m/S 756 mmHg 69%
    08:00 +21°C° 0 mm 1 m/S 756 mmHg 57%
    09:00 +25°C° 0 mm 1 m/S 756 mmHg 45%
    10:00 +27°C° 0 mm 1 m/S 755 mmHg 39%
    11:00 +29°C° 0 mm 1 m/S 755 mmHg 34%
    12:00 +31°C° 0 mm 1 m/S 755 mmHg 29%
    13:00 +31°C° 0 mm 1 m/S 754 mmHg 29%
    14:00 +31°C° 0 mm 1 m/S 754 mmHg 28%
    15:00 +31°C° 0 mm 1 m/S 753 mmHg 27%
    16:00 +30°C° 0 mm 1 m/S 753 mmHg 35%
    17:00 +28°C° 0 mm 1 m/S 753 mmHg 42%
    18:00 +27°C° 0 mm 2 m/S 753 mmHg 49%
    19:00 +25°C° 0 mm 2 m/S 753 mmHg 58%
    20:00 +23°C° 0 mm 2 m/S 753 mmHg 66%
    21:00 +19°C° 0 mm 2 m/S 753 mmHg 74%
    22:00 +20°C° 0 mm 1 m/S 754 mmHg 77%
    23:00 +20°C° 0 mm 1 m/S 754 mmHg 79%

    Morgen, 24 November, Freitag

    Zeit Temperatur Niederschläge Wind Luftdruck Luftfeuchtigkeit
    00:00 +19°C° 0 mm 1 m/S 754 mmHg 81%
    01:00 +19°C° 0 mm 1 m/S 754 mmHg 81%
    02:00 +19°C° 0 mm 1 m/S 754 mmHg 80%
    03:00 +18°C° 0 mm 2 m/S 754 mmHg 80%
    04:00 +18°C° 0 mm 2 m/S 754 mmHg 81%
    05:00 +18°C° 0 mm 2 m/S 755 mmHg 81%
    06:00 +18°C° 0 mm 2 m/S 755 mmHg 82%
    07:00 +21°C° 0 mm 2 m/S 755 mmHg 73%
    08:00 +25°C° 0 mm 2 m/S 755 mmHg 64%
    09:00 +28°C° 0 mm 2 m/S 756 mmHg 54%
    10:00 +30°C° 0 mm 2 m/S 756 mmHg 46%
    11:00 +32°C° 0 mm 2 m/S 755 mmHg 37%
    12:00 +35°C° 0 mm 2 m/S 755 mmHg 28%
    13:00 +35°C° 0 mm 2 m/S 755 mmHg 28%
    14:00 +35°C° 0 mm 2 m/S 755 mmHg 28%
    15:00 +35°C° 0 mm 2 m/S 754 mmHg 28%
    16:00 +31°C° 0 mm 3 m/S 755 mmHg 41%
    17:00 +29°C° 0 mm 3 m/S 755 mmHg 54%
    18:00 +26°C° 0 mm 4 m/S 755 mmHg 67%
    19:00 +23°C° 0 mm 4 m/S 756 mmHg 72%
    20:00 +21°C° 0 mm 3 m/S 757 mmHg 77%
    21:00 +20°C° 0 mm 3 m/S 758 mmHg 83%
    22:00 +19°C° 0 mm 3 m/S 758 mmHg 84%
    23:00 +19°C° 0 mm 2 m/S 758 mmHg 85%

    übermorgen, 25 November, Samstag

    Zeit Temperatur Niederschläge Wind Luftdruck Luftfeuchtigkeit
    00:00 +18°C° 0 mm 2 m/S 758 mmHg 86%
    01:00 +18°C° 0 mm 2 m/S 758 mmHg 87%
    02:00 +19°C° 0 mm 1 m/S 758 mmHg 88%
    03:00 +19°C° 0 mm 1 m/S 757 mmHg 90%
    04:00 +19°C° 0 mm 1 m/S 757 mmHg 90%
    05:00 +19°C° 0 mm 1 m/S 758 mmHg 89%
    06:00 +19°C° 0 mm 1 m/S 758 mmHg 89%
    07:00 +21°C° 0,1 mm 1 m/S 758 mmHg 82%
    08:00 +23°C° 0,1 mm 2 m/S 758 mmHg 74%
    09:00 +26°C° 0,1 mm 2 m/S 758 mmHg 66%
    10:00 +27°C° 0,1 mm 2 m/S 758 mmHg 62%
    11:00 +29°C° 0,1 mm 2 m/S 757 mmHg 58%
    12:00 +30°C° 0,1 mm 2 m/S 757 mmHg 54%
    13:00 +29°C° 0,5 mm 3 m/S 756 mmHg 60%
    14:00 +28°C° 0,5 mm 3 m/S 756 mmHg 66%
    15:00 +27°C° 0,5 mm 3 m/S 756 mmHg 72%
    16:00 +26°C° 1,4 mm 3 m/S 755 mmHg 78%
    17:00 +24°C° 1,4 mm 3 m/S 755 mmHg 84%
    18:00 +23°C° 1,4 mm 2 m/S 755 mmHg 90%
    19:00 +23°C° 0,5 mm 2 m/S 756 mmHg 92%
    20:00 +21°C° 0,5 mm 2 m/S 756 mmHg 93%
    21:00 +21°C° 0,5 mm 2 m/S 756 mmHg 95%
    22:00 +22°C° 0,4 mm 1 m/S 756 mmHg 95%
    23:00 +22°C° 0,4 mm 1 m/S 756 mmHg 96%

    26 November, Sonntag

    Zeit Temperatur Niederschläge Wind Luftdruck Luftfeuchtigkeit
    00:00 +22°C° 0,4 mm 1 m/S 756 mmHg 97%
    01:00 +22°C° 0,4 mm 1 m/S 755 mmHg 97%
    02:00 +21°C° 0,4 mm 1 m/S 755 mmHg 97%
    03:00 +21°C° 0,4 mm 1 m/S 754 mmHg 97%
    04:00 +21°C° 0,3 mm 1 m/S 754 mmHg 97%
    05:00 +21°C° 0,3 mm 1 m/S 754 mmHg 97%
    06:00 +21°C° 0,3 mm 1 m/S 754 mmHg 97%
    07:00 +21°C° 0,1 mm 0 m/S 754 mmHg 91%
    08:00 +22°C° 0,1 mm 0 m/S 754 mmHg 85%
    09:00 +24°C° 0,1 mm 0 m/S 754 mmHg 79%
    10:00 +27°C° 0,5 mm 1 m/S 753 mmHg 74%
    11:00 +28°C° 0,5 mm 1 m/S 753 mmHg 70%
    12:00 +29°C° 0,5 mm 1 m/S 752 mmHg 65%
    13:00 +29°C° 0,8 mm 1 m/S 752 mmHg 66%
    14:00 +29°C° 0,8 mm 1 m/S 751 mmHg 66%
    15:00 +29°C° 0,8 mm 1 m/S 750 mmHg 67%
    16:00 +29°C° 0,1 mm 1 m/S 750 mmHg 69%
    17:00 +28°C° 0,1 mm 2 m/S 750 mmHg 70%
    18:00 +28°C° 0,1 mm 2 m/S 750 mmHg 72%
    19:00 +26°C° 0 mm 1 m/S 751 mmHg 79%
    20:00 +24°C° 0 mm 1 m/S 751 mmHg 86%
    21:00 +23°C° 0 mm 1 m/S 751 mmHg 92%
    22:00 +22°C° 0 mm 1 m/S 751 mmHg 94%
    23:00 +22°C° 0 mm 1 m/S 751 mmHg 95%

    27 November, Montag

    Zeit Temperatur Niederschläge Wind Luftdruck Luftfeuchtigkeit
    00:00 +21°C° 0 mm 1 m/S 751 mmHg 96%
    01:00 +21°C° 0 mm 1 m/S 751 mmHg 96%
    02:00 +21°C° 0 mm 1 m/S 751 mmHg 97%
    03:00 +19°C° 0 mm 0 m/S 750 mmHg 97%
    04:00 +19°C° 0 mm 0 m/S 751 mmHg 97%
    05:00 +19°C° 0 mm 0 m/S 751 mmHg 96%
    06:00 +19°C° 0 mm 0 m/S 752 mmHg 95%
    07:00 +23°C° 0 mm 1 m/S 752 mmHg 87%
    08:00 +25°C° 0 mm 1 m/S 753 mmHg 79%
    09:00 +27°C° 0 mm 1 m/S 753 mmHg 71%
    10:00 +28°C° 0 mm 2 m/S 753 mmHg 63%
    11:00 +30°C° 0 mm 2 m/S 753 mmHg 56%
    12:00 +31°C° 0 mm 2 m/S 753 mmHg 48%
    13:00 +31°C° 0 mm 3 m/S 753 mmHg 48%
    14:00 +31°C° 0 mm 3 m/S 753 mmHg 49%
    15:00 +31°C° 0 mm 3 m/S 753 mmHg 49%
    16:00 +29°C° 0,1 mm 3 m/S 753 mmHg 53%
    17:00 +28°C° 0,1 mm 3 m/S 753 mmHg 57%
    18:00 +26°C° 0,1 mm 3 m/S 754 mmHg 61%
    19:00 +25°C° 0 mm 2 m/S 755 mmHg 67%
    20:00 +23°C° 0 mm 2 m/S 756 mmHg 74%
    21:00 +21°C° 0 mm 1 m/S 756 mmHg 80%
    22:00 +20°C° 0 mm 1 m/S 757 mmHg 83%
    23:00 +20°C° 0 mm 1 m/S 757 mmHg 86%

    28 November, Dienstag

    Zeit Temperatur Niederschläge Wind Luftdruck Luftfeuchtigkeit
    00:00 +19°C° 0 mm 1 m/S 758 mmHg 89%
    01:00 +19°C° 0,1 mm 1 m/S 757 mmHg 90%
    02:00 +20°C° 0,1 mm 1 m/S 757 mmHg 90%
    03:00 +20°C° 0,1 mm 1 m/S 757 mmHg 91%
    04:00 +20°C° 0,1 mm 1 m/S 757 mmHg 90%
    05:00 +19°C° 0,1 mm 2 m/S 758 mmHg 90%
    06:00 +18°C° 0,1 mm 2 m/S 758 mmHg 90%
    07:00 +19°C° 0 mm 2 m/S 759 mmHg 87%
    08:00 +19°C° 0 mm 2 m/S 759 mmHg 84%
    09:00 +20°C° 0 mm 2 m/S 759 mmHg 81%
    10:00 +20°C° 0 mm 2 m/S 759 mmHg 79%
    11:00 +20°C° 0 mm 2 m/S 759 mmHg 76%
    12:00 +20°C° 0 mm 2 m/S 759 mmHg 73%
    13:00 +21°C° 0 mm 2 m/S 759 mmHg 71%
    14:00 +21°C° 0 mm 2 m/S 759 mmHg 68%
    15:00 +23°C° 0 mm 2 m/S 759 mmHg 66%
    16:00 +21°C° 0 mm 2 m/S 758 mmHg 67%
    17:00 +21°C° 0 mm 2 m/S 758 mmHg 68%
    18:00 +20°C° 0 mm 3 m/S 758 mmHg 69%
    19:00 +19°C° 0 mm 2 m/S 759 mmHg 75%
    20:00 +17°C° 0 mm 2 m/S 759 mmHg 80%
    21:00 +16°C° 0 mm 2 m/S 759 mmHg 85%
    22:00 +15°C° 0 mm 1 m/S 759 mmHg 87%
    23:00 +15°C° 0 mm 1 m/S 759 mmHg 89%
    Mehr zeigen